Lafayette, LA

6:48 PM CDT on April 26, 2018 (GMT -0500)
Lafayette Regional

Weather History for KLFT - March, 2015

Change the Weather History Date:

Thursday, March 12, 2015

  Actual Average Record
Temperature  
Mean Temperature 66 °F 61 °F  
Max Temperature 71 °F 71 °F 93 °F (1911)
Min Temperature 60 °F 52 °F 32 °F (1948)
Degree Days  
Heating Degree Days 0 5  
Month to date heating degree days 73 76  
Since 1 July heating degree days 1516 1306  
Cooling Degree Days 1 2  
Month to date cooling degree days 12 18  
Year to date cooling degree days 17 50  
Growing Degree Days 16 (Base 50)    
Moisture  
Dew Point 64 °F    
Average Humidity 92    
Maximum Humidity 100    
Minimum Humidity 84    
Precipitation  
Precipitation 0.70 in 0.13 in 4.07 in (1947)
Month to date precipitation 3.31 1.61  
Year to date precipitation 10.41 11.73  
Snow  
Snow 0.00 in 0.00 in T in (1993)
Month to date snowfall T 0.0  
Since 1 July snowfall T T  
Snow Depth 0.00 in    
Sea Level Pressure  
Sea Level Pressure 30.03 in    
Wind  
Wind Speed 7 mph (East)    
Max Wind Speed 15 mph    
Max Gust Speed 20 mph    
Visibility 5 miles    
Events Fog , Rain , Thunderstorm    
T = Trace of Precipitation, MM = Missing Value Source: NWS Daily Summary

Daily Weather History Graph

Daily Weather History Graph

Search for Another Location

Airport or City:

Astronomy

Mar. 12, 2015 Rise Set
Actual Time 7:21 AM CDT 7:14 PM CDT
Civil Twilight 6:57 AM CDT 7:38 PM CDT
Nautical Twilight 6:29 AM CDT 8:05 PM CDT
Astronomical Twilight 6:02 AM CDT 8:33 PM CDT
Moon 12:38 AM CDT (3/12) 11:37 AM CDT (3/12)
Length of Visible Light 12h 40m
Length of Day
11h 52m
Waning Gibbous, 61% of the Moon is Illuminated
Mar 12
Waning Gibbous
Mar 13
Last Quarter
Mar 20
New
Mar 27
First Quarter
Apr 4
Full

Hourly Weather History & Observations

Time (CDT) Temp. Dew Point Humidity Pressure Visibility Wind Dir Wind Speed Gust Speed Precip Events Conditions
12:53 AM 60.1 °F 59.0 °F 96% 30.10 in 7.0 mi NNE 11.5 mph - N/A   Overcast
1:53 AM 60.1 °F 59.0 °F 96% 30.08 in 6.0 mi NE 9.2 mph - N/A   Overcast
2:53 AM 60.1 °F 59.0 °F 96% 30.06 in 3.0 mi NE 6.9 mph - N/A   Overcast
3:14 AM 60.1 °F 59.0 °F 96% 30.06 in 2.5 mi NE 8.1 mph - N/A   Overcast
3:50 AM 60.8 °F 60.8 °F 100% 30.04 in 1.5 mi NE 8.1 mph - N/A   Overcast
3:53 AM 61.0 °F 60.1 °F 97% 30.04 in 1.5 mi NE 6.9 mph - N/A   Overcast
4:43 AM 61.0 °F 60.1 °F 97% 30.04 in 0.8 mi NE 9.2 mph - N/A   Mist
4:53 AM 61.0 °F 60.1 °F 97% 30.05 in 0.8 mi NNE 5.8 mph - N/A   Mist
5:53 AM 60.1 °F 60.1 °F 100% 30.05 in 0.5 mi NE 6.9 mph - N/A Fog Fog
6:53 AM 61.0 °F 61.0 °F 100% 30.04 in 0.8 mi NE 6.9 mph - 0.00 in   Mist
7:40 AM 62.1 °F 62.1 °F 100% 30.04 in 0.2 mi ENE 4.6 mph - N/A Fog Fog
7:53 AM 63.0 °F 62.1 °F 97% 30.04 in 0.2 mi NE 6.9 mph - N/A Fog Fog
8:00 AM 63.0 °F 62.1 °F 97% 30.04 in 0.5 mi ENE 5.8 mph - N/A Fog Fog
8:53 AM 64.0 °F 63.0 °F 96% 30.05 in 1.0 mi ENE 5.8 mph - N/A   Overcast
9:11 AM 64.0 °F 64.0 °F 100% 30.06 in 1.0 mi NE 3.5 mph - N/A Thunderstorm Overcast
9:38 AM 64.0 °F 63.0 °F 96% 30.07 in 1.5 mi North 4.6 mph - N/A   Overcast
9:53 AM 64.0 °F 63.0 °F 96% 30.08 in 1.5 mi North 6.9 mph - N/A   Overcast
10:04 AM 64.0 °F 64.0 °F 100% 30.08 in 1.0 mi Calm Calm - 0.03 in Rain , Thunderstorm Rain
10:19 AM 64.0 °F 63.0 °F 96% 30.07 in 1.0 mi ENE 5.8 mph - 0.08 in Rain Heavy Rain
10:48 AM 64.4 °F 64.4 °F 100% 30.10 in 1.0 mi East 3.5 mph - 0.17 in Rain Rain
10:53 AM 64.9 °F 64.0 °F 97% 30.10 in 1.0 mi Calm Calm - 0.18 in Rain Rain
11:46 AM 66.0 °F 64.9 °F 96% 30.08 in 3.0 mi ESE 5.8 mph - 0.19 in Rain Rain
11:53 AM 66.0 °F 66.0 °F 100% 30.09 in 3.0 mi ESE 5.8 mph - 0.21 in Rain Rain
12:00 PM 66.0 °F 66.0 °F 100% 30.09 in 3.0 mi SSE 4.6 mph - 0.02 in Rain Rain
12:53 PM 66.9 °F 66.0 °F 97% 30.07 in 2.5 mi ESE 5.8 mph - 0.11 in Rain Heavy Rain
1:06 PM 66.9 °F 64.9 °F 93% 30.07 in 5.0 mi ESE 6.9 mph - 0.02 in Rain Light Rain
1:13 PM 66.0 °F 64.9 °F 96% 30.06 in 10.0 mi East 6.9 mph - 0.02 in Rain Light Rain
1:53 PM 66.9 °F 64.9 °F 93% 30.04 in 10.0 mi Variable 5.8 mph - 0.03 in Rain Light Rain
2:53 PM 69.8 °F 66.2 °F 88% 30.01 in 10.0 mi Variable 5.8 mph - N/A   Overcast
3:06 PM 70.0 °F 66.9 °F 90% 30.00 in 10.0 mi East 8.1 mph - N/A   Overcast
3:17 PM 70.0 °F 66.9 °F 90% 29.99 in 10.0 mi East 5.8 mph - N/A   Overcast
3:26 PM 70.0 °F 66.9 °F 90% 29.98 in 10.0 mi Variable 6.9 mph - N/A   Overcast
3:33 PM 70.0 °F 66.9 °F 90% 29.99 in 10.0 mi ESE 9.2 mph - N/A   Mostly Cloudy
3:53 PM 71.1 °F 66.9 °F 87% 29.98 in 10.0 mi Variable 6.9 mph - N/A   Scattered Clouds
4:53 PM 71.1 °F 66.9 °F 87% 29.96 in 10.0 mi ESE 9.2 mph - N/A   Scattered Clouds
5:13 PM 70.0 °F 66.9 °F 90% 29.96 in 10.0 mi Variable 5.8 mph 17.3 mph N/A   Mostly Cloudy
5:53 PM 71.1 °F 66.9 °F 87% 29.96 in 10.0 mi ESE 8.1 mph - N/A   Overcast
6:53 PM 70.0 °F 66.9 °F 90% 29.98 in 10.0 mi ESE 5.8 mph - N/A   Overcast
7:12 PM 70.0 °F 66.9 °F 90% 29.98 in 10.0 mi Variable 6.9 mph - N/A   Overcast
7:30 PM 69.1 °F 66.9 °F 93% 29.98 in 10.0 mi ESE 5.8 mph - 0.00 in Rain Light Rain
7:53 PM 70.0 °F 66.9 °F 90% 29.99 in 10.0 mi ESE 5.8 mph - 0.00 in   Overcast
8:03 PM 69.1 °F 66.9 °F 93% 29.99 in 10.0 mi Variable 4.6 mph - N/A   Overcast
8:53 PM 69.1 °F 66.0 °F 90% 29.99 in 10.0 mi ESE 5.8 mph - N/A   Overcast
9:13 PM 69.1 °F 66.0 °F 90% 29.99 in 10.0 mi ESE 4.6 mph - N/A   Overcast
9:24 PM 69.1 °F 66.0 °F 90% 29.99 in 10.0 mi ESE 4.6 mph - N/A   Overcast
9:53 PM 69.1 °F 66.0 °F 90% 29.99 in 9.0 mi ESE 4.6 mph - 0.01 in   Overcast
10:03 PM 68.0 °F 66.0 °F 93% 29.99 in 2.5 mi Variable 4.6 mph - 0.02 in Rain Light Rain
10:17 PM 68.0 °F 66.9 °F 96% 30.00 in 2.5 mi Variable 5.8 mph - 0.05 in Rain Rain
10:53 PM 66.9 °F 66.0 °F 97% 30.01 in 2.0 mi SSE 13.8 mph 20.7 mph 0.11 in Rain Light Rain
11:20 PM 66.9 °F 66.0 °F 97% 30.01 in 3.0 mi SSE 8.1 mph - 0.02 in Rain Light Rain
11:50 PM 66.2 °F 66.2 °F 100% 30.00 in 2.5 mi SSE 8.1 mph - 0.03 in Rain Light Rain
11:53 PM 66.9 °F 66.0 °F 97% 30.01 in 3.0 mi SSE 8.1 mph - 0.03 in Rain Light Rain